Hourly Weather Aberfoyle

Today, 16 January, Saturday

Time Temperature Precipitation Wind Pressure Humidity
00:00 -1°C° 0 mm 3 mps 736 mmHg 97%
01:00 -1°C° 1.9 mm 3 mps 734 mmHg 97%
02:00 -1°C° 1.9 mm 3 mps 733 mmHg 98%
03:00 -1°C° 1.9 mm 2 mps 731 mmHg 98%
04:00 +1°C° 2 mm 2 mps 731 mmHg 98%
05:00 +1°C° 2 mm 2 mps 730 mmHg 98%
06:00 +1°C° 0 mm 2 mps 729 mmHg 97%
07:00 +1°C° 0.4 mm 3 mps 729 mmHg 97%
08:00 +2°C° 0.4 mm 3 mps 729 mmHg 97%
09:00 +3°C° 0.4 mm 4 mps 729 mmHg 97%
10:00 +2°C° 0.5 mm 5 mps 729 mmHg 96%
11:00 +2°C° 0.5 mm 5 mps 730 mmHg 95%
12:00 +3°C° 0 mm 6 mps 730 mmHg 95%
13:00 +2°C° 0.1 mm 6 mps 731 mmHg 93%
14:00 +2°C° 0.1 mm 7 mps 731 mmHg 91%
15:00 +1°C° 0.1 mm 8 mps 732 mmHg 90%
16:00 0°C° 0 mm 7 mps 732 mmHg 89%
17:00 +1°C° 0 mm 6 mps 733 mmHg 88%
18:00 -1°C° 0 mm 6 mps 733 mmHg 87%
19:00 0°C° 0 mm 5 mps 734 mmHg 87%
20:00 0°C° 0 mm 4 mps 734 mmHg 87%
21:00 0°C° 0 mm 4 mps 735 mmHg 87%
22:00 0°C° 0 mm 3 mps 735 mmHg 89%
23:00 0°C° 0 mm 3 mps 735 mmHg 90%

Tomorrow, 17 January, Sunday

Time Temperature Precipitation Wind Pressure Humidity
00:00 0°C° 0 mm 3 mps 735 mmHg 91%
01:00 0°C° 0 mm 3 mps 736 mmHg 90%
02:00 0°C° 0 mm 3 mps 736 mmHg 89%
03:00 -1°C° 0 mm 2 mps 736 mmHg 87%
04:00 -1°C° 0 mm 2 mps 737 mmHg 88%
05:00 -1°C° 0 mm 2 mps 737 mmHg 89%
06:00 -1°C° 0 mm 2 mps 737 mmHg 89%
07:00 -1°C° 0 mm 2 mps 738 mmHg 89%
08:00 -1°C° 0 mm 2 mps 738 mmHg 89%
09:00 -1°C° 0 mm 2 mps 739 mmHg 89%
10:00 +1°C° 0 mm 2 mps 739 mmHg 90%
11:00 +2°C° 0 mm 2 mps 739 mmHg 92%
12:00 +3°C° 0 mm 2 mps 739 mmHg 93%
13:00 +2°C° 0.7 mm 3 mps 739 mmHg 95%
14:00 +2°C° 0.7 mm 3 mps 738 mmHg 96%
15:00 +2°C° 0.7 mm 3 mps 738 mmHg 97%
16:00 +2°C° 1.2 mm 3 mps 738 mmHg 97%
17:00 +1°C° 1.2 mm 4 mps 738 mmHg 96%
18:00 +3°C° 1.2 mm 4 mps 738 mmHg 95%
19:00 +3°C° 0.7 mm 4 mps 737 mmHg 96%
20:00 +3°C° 0.7 mm 4 mps 737 mmHg 96%
21:00 +3°C° 0.7 mm 4 mps 737 mmHg 96%
22:00 +1°C° 1.4 mm 4 mps 737 mmHg 96%
23:00 +1°C° 1.4 mm 4 mps 736 mmHg 96%

Day after tomorrow, 18 January, Monday

Time Temperature Precipitation Wind Pressure Humidity
00:00 +1°C° 1.4 mm 4 mps 736 mmHg 96%
01:00 +1°C° 0.4 mm 4 mps 736 mmHg 93%
02:00 0°C° 0.4 mm 4 mps 736 mmHg 90%
03:00 0°C° 0.4 mm 4 mps 735 mmHg 86%
04:00 0°C° 0 mm 3 mps 735 mmHg 87%
05:00 0°C° 0 mm 3 mps 735 mmHg 88%
06:00 0°C° 0 mm 3 mps 734 mmHg 88%
07:00 0°C° 0 mm 3 mps 734 mmHg 88%
08:00 0°C° 0 mm 3 mps 734 mmHg 89%
09:00 0°C° 0 mm 3 mps 734 mmHg 89%
10:00 0°C° 0 mm 3 mps 734 mmHg 88%
11:00 +1°C° 0 mm 3 mps 733 mmHg 88%
12:00 +2°C° 0 mm 3 mps 733 mmHg 88%
13:00 +2°C° 0 mm 3 mps 733 mmHg 87%
14:00 +2°C° 0 mm 3 mps 732 mmHg 86%
15:00 +1°C° 0 mm 3 mps 731 mmHg 85%
16:00 +1°C° 0 mm 3 mps 731 mmHg 88%
17:00 0°C° 0 mm 3 mps 730 mmHg 90%
18:00 +1°C° 0 mm 2 mps 730 mmHg 93%
19:00 +1°C° 0 mm 2 mps 730 mmHg 93%
20:00 +1°C° 0 mm 2 mps 729 mmHg 93%
21:00 +1°C° 0 mm 1 mps 729 mmHg 93%
22:00 +1°C° 0 mm 1 mps 728 mmHg 94%
23:00 +1°C° 0 mm 1 mps 728 mmHg 94%

19 January, Tuesday

Time Temperature Precipitation Wind Pressure Humidity
00:00 +1°C° 0 mm 1 mps 727 mmHg 95%
01:00 +1°C° 0 mm 1 mps 727 mmHg 95%
02:00 0°C° 0 mm 0 mps 726 mmHg 95%
03:00 0°C° 0 mm 0 mps 725 mmHg 96%
04:00 0°C° 0 mm 0 mps 725 mmHg 96%
05:00 0°C° 0 mm 0 mps 724 mmHg 96%
06:00 0°C° 0 mm 0 mps 724 mmHg 96%
07:00 0°C° 0 mm 0 mps 723 mmHg 96%
08:00 0°C° 0 mm 0 mps 723 mmHg 96%
09:00 0°C° 0 mm 0 mps 722 mmHg 96%
10:00 0°C° 0 mm 0 mps 721 mmHg 95%
11:00 0°C° 0 mm 0 mps 721 mmHg 94%
12:00 +1°C° 0 mm 0 mps 720 mmHg 93%
13:00 +1°C° 0 mm 0 mps 720 mmHg 93%
14:00 +2°C° 0 mm 1 mps 719 mmHg 93%
15:00 +1°C° 0 mm 1 mps 718 mmHg 93%
16:00 +1°C° 0 mm 1 mps 717 mmHg 93%
17:00 0°C° 0 mm 1 mps 717 mmHg 93%
18:00 0°C° 0 mm 1 mps 716 mmHg 93%
19:00 0°C° 0 mm 1 mps 716 mmHg 92%
20:00 -1°C° 0 mm 1 mps 716 mmHg 91%
21:00 -1°C° 0 mm 1 mps 715 mmHg 90%
22:00 -1°C° 0 mm 1 mps 715 mmHg 88%
23:00 -1°C° 0 mm 1 mps 715 mmHg 87%

20 January, Wednesday

Time Temperature Precipitation Wind Pressure Humidity
00:00 -1°C° 0 mm 1 mps 715 mmHg 85%
01:00 -1°C° 0 mm 1 mps 714 mmHg 84%
02:00 -1°C° 0 mm 1 mps 714 mmHg 83%
03:00 -1°C° 0 mm 1 mps 714 mmHg 82%
04:00 -2°C° 0 mm 1 mps 714 mmHg 82%
05:00 -2°C° 0 mm 1 mps 713 mmHg 82%
06:00 -2°C° 0 mm 1 mps 713 mmHg 81%
07:00 -2°C° 0 mm 1 mps 713 mmHg 81%
08:00 -2°C° 0 mm 1 mps 713 mmHg 80%
09:00 -2°C° 0 mm 1 mps 713 mmHg 80%
10:00 -2°C° 0 mm 1 mps 713 mmHg 80%
11:00 -1°C° 0 mm 1 mps 712 mmHg 79%
12:00 0°C° 0 mm 1 mps 712 mmHg 78%
13:00 0°C° 0 mm 1 mps 712 mmHg 80%
14:00 0°C° 0 mm 1 mps 711 mmHg 81%
15:00 0°C° 0 mm 1 mps 711 mmHg 82%
16:00 0°C° 0 mm 1 mps 711 mmHg 84%
17:00 -1°C° 0 mm 1 mps 711 mmHg 86%
18:00 -1°C° 0 mm 1 mps 711 mmHg 88%
19:00 -1°C° 0.2 mm 1 mps 711 mmHg 90%
20:00 -1°C° 0.2 mm 1 mps 711 mmHg 93%
21:00 -2°C° 0.2 mm 2 mps 711 mmHg 95%
22:00 -2°C° 0.3 mm 2 mps 711 mmHg 95%
23:00 -2°C° 0.3 mm 2 mps 711 mmHg 95%

21 January, Thursday

Time Temperature Precipitation Wind Pressure Humidity
00:00 -2°C° 0.3 mm 2 mps 711 mmHg 95%
01:00 -2°C° 0 mm 2 mps 710 mmHg 94%
02:00 -1°C° 0 mm 2 mps 710 mmHg 92%
03:00 -1°C° 0 mm 2 mps 710 mmHg 91%
04:00 -2°C° 0 mm 2 mps 710 mmHg 91%
05:00 -2°C° 0 mm 2 mps 710 mmHg 91%
06:00 -2°C° 0 mm 2 mps 710 mmHg 91%
07:00 -2°C° 0 mm 2 mps 711 mmHg 91%
08:00 -2°C° 0 mm 3 mps 711 mmHg 90%
09:00 -2°C° 0 mm 3 mps 711 mmHg 90%
10:00 -2°C° 0 mm 3 mps 712 mmHg 87%
11:00 -1°C° 0 mm 3 mps 712 mmHg 85%
12:00 0°C° 0 mm 3 mps 712 mmHg 83%
13:00 -1°C° 0 mm 4 mps 712 mmHg 82%
14:00 -1°C° 0 mm 4 mps 712 mmHg 82%
15:00 -1°C° 0 mm 4 mps 712 mmHg 81%
16:00 -2°C° 0 mm 4 mps 712 mmHg 82%
17:00 -2°C° 0 mm 4 mps 712 mmHg 84%
18:00 -3°C° 0 mm 4 mps 712 mmHg 85%
19:00 -3°C° 0 mm 4 mps 712 mmHg 86%
20:00 -3°C° 0 mm 4 mps 713 mmHg 87%
21:00 -2°C° 0 mm 3 mps 713 mmHg 87%
22:00 -2°C° 0 mm 3 mps 713 mmHg 88%
23:00 -2°C° 0 mm 3 mps 713 mmHg 88%
Show more